Location: Audinghen
(50.8518°N, 1.6129°E)
Time: 16:34:06
(UTC+00:00)

Meteor 2-9 Rocket - Pass Details

Date: 07 August 2020
Orbit: 792 x 895 km, 81.3° (Epoch: 19 September)

Event Time Altitude Azimuth Distance (km) Brightness Sun altitude
Exits shadow 00:41:28 49° 196° (SSW) 1,069 4.3 -22.2°
Maximum altitude 00:43:03 86° 280° (W) 854 4.1 -22.1°
Drops below altitude 10° 00:48:46 10° 12° (NNE) 2,514 7.8 -21.9°
Sets 00:51:15 0° 13° (NNE) 3,470 8.9 -21.9°
